Regional Weather Roundup
Issued by NWS Sioux Falls, SD

Home | Current Version | Previous Version | Text Only | Print | Product List | Glossary On
Versions: 1 2 3 4 5 6 7 8 9 10 11 12 13 14 15 16 17 18 19 20 21 22 23 24 25 26 27 28 29 30 31 32 33 34 35 36 37 38 39 40 41 42 43 44 45 46 47 48 49 50
000
ASUS43 KFSD 230010
RWRFSD

WEATHER ROUNDUP FOR SE SOUTH DAKOTA/SW MINNESOTA/NW IOWA
NATIONAL WEATHER SERVICE SIOUX FALLS SD
700 PM CDT WED OCT 22 2014

NOTE: "FAIR" INDICATES FEW OR NO CLOUDS BELOW 12,000 FEET WITH NO
SIGNIFICANT WEATHER AND OR OBSTRUCTIONS TO VISIBILITY.


SDZ038>040-050-052>070-230100-
SOUTHEAST SOUTH DAKOTA

CITY           SKY/WX    TMP DP  RH WIND       PRES   REMARKS
CHAMBERLAIN    PTCLDY    54  48  81 CALM      29.98R
6HR MIN TEMP:  54; 6HR MAX TEMP:  61;

HURON          MOCLDY    56  52  86 W7        29.97R
6HR MIN TEMP:  55; 6HR MAX TEMP:  65; 6HR PCP:  0.08;

MADISON        CLOUDY    54  54 100 W8        29.97R
MITCHELL       MOCLDY    57  54  89 SW3       29.99R
6HR MIN TEMP:  56; 6HR MAX TEMP:  69; 6HR PCP:  0.28;

SIOUX FALLS    CLOUDY    59  57  93 SW5       29.97R
6HR MIN TEMP:  58; 6HR MAX TEMP:  71; 6HR PCP:  0.29;

WINNER         FAIR      61  41  47 W6        30.00R
YANKTON        CLOUDY    57  54  88 W9        30.00R
$$

MNZ071-072-080-081-089-090-097-098-230100-
SOUTHWEST MINNESOTA

CITY           SKY/WX    TMP DP  RH WIND       PRES   REMARKS
FAIRMONT       MOCLDY    59  43  55 S17G28    30.02R
JACKSON        MOCLDY    61  45  55 SE14G22   30.00R
LUVERNE        RAIN      61  57  88 S6        29.99R
MARSHALL       CLOUDY    61  55  82 SW9       29.95R
6HR MIN TEMP:  61; 6HR MAX TEMP:  73; 6HR PCP:  0.09;

MONTEVIDEO     RAIN      61  55  82 S3        29.96R
PIPESTONE      LGT RAIN  57  57 100 SW6       29.97S
REDWOOD FALLS  CLOUDY    63  46  54 S18       29.96R
TRACY          RAIN      61  58  91 SW6       29.98R
WINDOM         MOCLDY    63  46  55 S12G23    30.00R
WORTHINGTON    CLOUDY    61  55  82 SW10      30.01R
$$

IAZ001>003-012>014-020>022-031-032-NEZ013-014-SDZ071-230100-
NORTHWEST IOWA

CITY           SKY/WX    TMP DP  RH WIND       PRES   REMARKS
CHEROKEE       CLOUDY    67  52  57 SW15G24   30.03R
DENISON        MOCLDY    64  52  63 SE15G22   29.99R
ESTHERVILLE    MOCLDY    58  46  64 SE21      30.00S
LE MARS        LGT RAIN  61  59  94 S3        30.01F
ORANGE CITY    RAIN      61  57  88 S6        30.01S
SHELDON        LGT RAIN  59  59 100 SW7       30.01R
SIOUX CITY     RAIN      61  59  93 SW5       30.02R FOG
6HR MIN TEMP:  61; 6HR MAX TEMP:  76; 6HR PCP:  0.37;

SPENCER        MOCLDY    63  48  58 SE16      29.99R
6HR MIN TEMP:  63; 6HR MAX TEMP:  70;

STORM LAKE     MOCLDY    63  50  63 SE18      30.02R
$$

ABBREVIATIONS USED IN REMARKS
   TC - TEMPERATURE IN CELSIUS
  WCI - WIND CHILL INDEX
   HX - HEAT INDEX
  VSB - VISIBILITY




USA.gov is the U.S. government's official web portal to all federal, state and local government web resources and services.